Location: PSU-Greenbush Astrophysical Observatory
(37.5140°N, 94.9880°W)
Time: 07:20:20
(UTC-05:00)

CUTE 1.7 + AOD 2 - Pass Details

Date: 24 February 2020
Orbit: 593 x 612 km, 97.6° (Epoch: 05 April)

Event Time Altitude Azimuth Distance (km) Brightness Sun altitude
Rises 05:22:19 0° 15° (NNE) 2,842 ? -19.8°
Reaches altitude 10° 05:24:31 10° 19° (NNE) 1,934 ? -19.4°
Maximum altitude 05:28:40 61° 100° (E) 674 ? -18.6°
Drops below altitude 10° 05:32:47 10° 182° (S) 1,917 ? -17.8°
Sets 05:34:57 0° 185° (S) 2,814 ? -17.3°
